• In Germany
  • List of Countries
  • For 7 days
  • Water Temperature
  • Satellite Maps
  • Weather Map
  • Weather Widgets
  • user-avatar
    Login

    Hourly Weather Qala i Naw

    Today, 17 January, Wednesday

    Time Temperature Precipitation Wind Pressure Humidity
    00:00 -1°C° 0 mm 1 mps 682 mmHg 74%
    01:00 -1°C° 0 mm 1 mps 682 mmHg 74%
    02:00 -1°C° 0 mm 1 mps 682 mmHg 74%
    03:00 -1°C° 0 mm 1 mps 682 mmHg 74%
    04:00 -1°C° 0 mm 1 mps 681 mmHg 74%
    05:00 -2°C° 0 mm 1 mps 681 mmHg 74%
    06:00 -2°C° 0 mm 1 mps 681 mmHg 73%
    07:00 -2°C° 0 mm 1 mps 681 mmHg 73%
    08:00 0°C° 0 mm 1 mps 681 mmHg 64%
    09:00 +2°C° 0 mm 1 mps 682 mmHg 54%
    10:00 +3°C° 0 mm 2 mps 682 mmHg 45%
    11:00 +4°C° 0 mm 2 mps 681 mmHg 41%
    12:00 +5°C° 0 mm 2 mps 681 mmHg 37%
    13:00 +5°C° 0 mm 3 mps 681 mmHg 33%
    14:00 +5°C° 0 mm 3 mps 681 mmHg 33%
    15:00 +5°C° 0 mm 3 mps 680 mmHg 33%
    16:00 +5°C° 0 mm 3 mps 680 mmHg 34%
    17:00 +5°C° 0 mm 2 mps 680 mmHg 37%
    18:00 +4°C° 0 mm 2 mps 681 mmHg 40%
    19:00 +4°C° 0 mm 1 mps 681 mmHg 44%
    20:00 +4°C° 0 mm 1 mps 681 mmHg 42%
    21:00 +4°C° 0 mm 1 mps 681 mmHg 41%
    22:00 +4°C° 0 mm 1 mps 681 mmHg 40%
    23:00 +4°C° 0 mm 1 mps 681 mmHg 39%

    Tomorrow, 18 January, Thursday

    Time Temperature Precipitation Wind Pressure Humidity
    00:00 +4°C° 0 mm 1 mps 681 mmHg 37%
    01:00 +4°C° 0 mm 1 mps 681 mmHg 36%
    02:00 +4°C° 0 mm 1 mps 680 mmHg 35%
    03:00 +4°C° 0 mm 1 mps 680 mmHg 34%
    04:00 +4°C° 0 mm 1 mps 680 mmHg 33%
    05:00 +4°C° 0 mm 1 mps 680 mmHg 32%
    06:00 +4°C° 0 mm 1 mps 680 mmHg 31%
    07:00 +3°C° 0 mm 2 mps 680 mmHg 30%
    08:00 +6°C° 0 mm 2 mps 680 mmHg 26%
    09:00 +8°C° 0 mm 2 mps 681 mmHg 22%
    10:00 +11°C° 0 mm 1 mps 681 mmHg 18%
    11:00 +12°C° 0 mm 2 mps 681 mmHg 17%
    12:00 +13°C° 0 mm 2 mps 680 mmHg 16%
    13:00 +15°C° 0 mm 2 mps 680 mmHg 15%
    14:00 +14°C° 0 mm 2 mps 679 mmHg 17%
    15:00 +13°C° 0 mm 3 mps 679 mmHg 18%
    16:00 +12°C° 0 mm 3 mps 679 mmHg 20%
    17:00 +12°C° 0 mm 2 mps 679 mmHg 22%
    18:00 +10°C° 0 mm 1 mps 679 mmHg 25%
    19:00 +9°C° 0 mm 1 mps 679 mmHg 27%
    20:00 +9°C° 0 mm 1 mps 679 mmHg 27%
    21:00 +9°C° 0 mm 1 mps 679 mmHg 26%
    22:00 +9°C° 0 mm 1 mps 679 mmHg 26%
    23:00 +7°C° 0 mm 2 mps 679 mmHg 25%

    Day after tomorrow, 19 January, Friday

    Time Temperature Precipitation Wind Pressure Humidity
    00:00 +7°C° 0 mm 2 mps 679 mmHg 25%
    01:00 +7°C° 0 mm 2 mps 679 mmHg 25%
    02:00 +7°C° 0 mm 3 mps 679 mmHg 25%
    03:00 +7°C° 0 mm 3 mps 679 mmHg 25%
    04:00 +7°C° 0 mm 3 mps 680 mmHg 24%
    05:00 +7°C° 0 mm 3 mps 680 mmHg 24%
    06:00 +7°C° 0 mm 3 mps 680 mmHg 25%
    07:00 +7°C° 0 mm 3 mps 681 mmHg 25%
    08:00 +8°C° 0 mm 4 mps 681 mmHg 22%
    09:00 +12°C° 0 mm 4 mps 682 mmHg 19%
    10:00 +14°C° 0 mm 4 mps 683 mmHg 17%
    11:00 +15°C° 0 mm 4 mps 682 mmHg 16%
    12:00 +17°C° 0 mm 4 mps 682 mmHg 15%
    13:00 +19°C° 0 mm 4 mps 682 mmHg 13%
    14:00 +18°C° 0 mm 3 mps 682 mmHg 15%
    15:00 +18°C° 0 mm 2 mps 682 mmHg 16%
    16:00 +17°C° 0 mm 2 mps 682 mmHg 17%
    17:00 +16°C° 0 mm 2 mps 682 mmHg 18%
    18:00 +14°C° 0 mm 2 mps 682 mmHg 20%
    19:00 +12°C° 0 mm 2 mps 682 mmHg 21%
    20:00 +12°C° 0 mm 2 mps 682 mmHg 22%
    21:00 +10°C° 0 mm 2 mps 682 mmHg 22%
    22:00 +10°C° 0 mm 2 mps 682 mmHg 23%
    23:00 +10°C° 0 mm 3 mps 682 mmHg 24%

    20 January, Saturday

    Time Temperature Precipitation Wind Pressure Humidity
    00:00 +9°C° 0 mm 3 mps 682 mmHg 24%
    01:00 +9°C° 0 mm 3 mps 682 mmHg 25%
    02:00 +9°C° 0 mm 3 mps 681 mmHg 26%
    03:00 +8°C° 0 mm 3 mps 681 mmHg 26%
    04:00 +8°C° 0 mm 3 mps 681 mmHg 27%
    05:00 +8°C° 0 mm 3 mps 681 mmHg 27%
    06:00 +8°C° 0 mm 3 mps 681 mmHg 27%
    07:00 +7°C° 0 mm 3 mps 681 mmHg 27%
    08:00 +10°C° 0 mm 2 mps 682 mmHg 24%
    09:00 +14°C° 0 mm 2 mps 682 mmHg 20%
    10:00 +16°C° 0 mm 2 mps 683 mmHg 16%
    11:00 +17°C° 0 mm 2 mps 682 mmHg 15%
    12:00 +18°C° 0 mm 2 mps 682 mmHg 13%
    13:00 +19°C° 0 mm 2 mps 681 mmHg 11%
    14:00 +19°C° 0 mm 2 mps 681 mmHg 12%
    15:00 +19°C° 0 mm 2 mps 680 mmHg 14%
    16:00 +18°C° 0 mm 2 mps 680 mmHg 15%
    17:00 +16°C° 0 mm 2 mps 680 mmHg 17%
    18:00 +14°C° 0 mm 1 mps 680 mmHg 19%
    19:00 +12°C° 0 mm 1 mps 679 mmHg 21%
    20:00 +11°C° 0 mm 1 mps 679 mmHg 22%
    21:00 +10°C° 0 mm 0 mps 679 mmHg 23%
    22:00 +9°C° 0 mm 0 mps 679 mmHg 23%
    23:00 +10°C° 0 mm 1 mps 679 mmHg 24%

    21 January, Sunday

    Time Temperature Precipitation Wind Pressure Humidity
    00:00 +10°C° 0 mm 1 mps 679 mmHg 25%
    01:00 +8°C° 0 mm 2 mps 680 mmHg 25%
    02:00 +7°C° 0 mm 2 mps 680 mmHg 28%
    03:00 +7°C° 0 mm 2 mps 680 mmHg 31%
    04:00 +6°C° 0 mm 2 mps 680 mmHg 34%
    05:00 +5°C° 0 mm 2 mps 680 mmHg 36%
    06:00 +4°C° 0 mm 2 mps 680 mmHg 38%
    07:00 +5°C° 0 mm 1 mps 680 mmHg 40%
    08:00 +5°C° 0 mm 2 mps 681 mmHg 37%
    09:00 +6°C° 0 mm 2 mps 681 mmHg 35%
    10:00 +8°C° 0 mm 3 mps 681 mmHg 33%
    11:00 +8°C° 0 mm 3 mps 681 mmHg 33%
    12:00 +9°C° 0 mm 3 mps 680 mmHg 34%
    13:00 +9°C° 0 mm 3 mps 680 mmHg 34%
    14:00 +9°C° 0 mm 3 mps 680 mmHg 36%
    15:00 +9°C° 0 mm 3 mps 680 mmHg 39%
    16:00 +8°C° 0 mm 3 mps 680 mmHg 41%
    17:00 +7°C° 0 mm 3 mps 680 mmHg 46%
    18:00 +5°C° 0 mm 3 mps 680 mmHg 51%
    19:00 +5°C° 0 mm 2 mps 681 mmHg 56%
    20:00 +5°C° 0 mm 2 mps 681 mmHg 59%
    21:00 +4°C° 0 mm 2 mps 681 mmHg 61%
    22:00 +5°C° 0 mm 1 mps 681 mmHg 63%
    23:00 +4°C° 0 mm 1 mps 681 mmHg 65%

    22 January, Monday

    Time Temperature Precipitation Wind Pressure Humidity
    00:00 +4°C° 0 mm 1 mps 680 mmHg 66%
    01:00 +3°C° 0 mm 1 mps 680 mmHg 68%
    02:00 +3°C° 0 mm 1 mps 680 mmHg 69%
    03:00 +3°C° 0 mm 1 mps 680 mmHg 71%
    04:00 +2°C° 0 mm 1 mps 680 mmHg 72%
    05:00 +2°C° 0 mm 1 mps 680 mmHg 73%
    06:00 +2°C° 0 mm 1 mps 680 mmHg 74%
    07:00 +2°C° 0 mm 1 mps 680 mmHg 75%
    08:00 +3°C° 0 mm 1 mps 680 mmHg 68%
    09:00 +5°C° 0 mm 1 mps 680 mmHg 60%
    10:00 +6°C° 0 mm 1 mps 681 mmHg 52%
    11:00 +7°C° 0 mm 1 mps 680 mmHg 49%
    12:00 +7°C° 0 mm 2 mps 680 mmHg 45%
    13:00 +8°C° 0 mm 2 mps 679 mmHg 42%
    14:00 +8°C° 0 mm 2 mps 679 mmHg 42%
    15:00 +8°C° 0 mm 2 mps 679 mmHg 43%
    16:00 +8°C° 0 mm 2 mps 679 mmHg 43%
    17:00 +7°C° 0 mm 2 mps 679 mmHg 48%
    18:00 +7°C° 0 mm 1 mps 679 mmHg 53%
    19:00 +6°C° 0 mm 1 mps 679 mmHg 57%
    20:00 +6°C° 0 mm 1 mps 679 mmHg 58%
    21:00 +4°C° 0 mm 0 mps 679 mmHg 59%
    22:00 +4°C° 0 mm 0 mps 679 mmHg 60%
    23:00 +4°C° 0 mm 0 mps 679 mmHg 60%
    Show more